Other Public Products
Issued by NWS Grand Forks, ND

Home | Current Version | Previous Version | Graphics & Text | Print | Product List | Glossary Off
Versions: 1 2 3 4 5 6 7 8 9 10 11 12 13 14 15 16 17 18 19 20 21 22 23 24 25 26 27 28 29 30 31 32 33 34 35 36 37 38 39 40 41 42 43 44 45 46 47 48 49 50

000
FPUS83 KFGF 020010
OPUFGF
PRAIRIE TO PINES WEATHER ROUNDUP
NATIONAL WEATHER SERVICE EASTERN NORTH DAKOTA/GRAND FORKS ND
700 PM CDT WED JUL 01 2015

 **SATELLITE DATA USED TO AUGMENT SKY COVER AT AUTOMATED STATIONS**
 *****  WEATHER ACROSS EASTERN NORTH DAKOTA  *****

CITY           SKY/WX    TMP DP  RH WIND       PRES   REMARKS
GRAND FORKS    MOSUNNY   77  61  57 SW6       29.92F HAZE
6HR MIN TEMP:  76; 6HR MAX TEMP:  80;

GRAND FORKS AF SUNNY     77  61  59 S6        29.93F
GRAND CITY NWS   N/A     77 N/A N/A S7          N/A
BUXTON         NOT AVBL
DEVILS LAKE    MOSUNNY   75  57  53 SE5       29.93S
6HR MIN TEMP:  72; 6HR MAX TEMP:  77;

FARGO          SUNNY     74  57  55 S10       29.95S
6HR MIN TEMP:  73; 6HR MAX TEMP:  76;

WAHPETON ARPT  CLEAR     70  54  56 S7        29.97S
$$

 *****  WEATHER ACROSS CENTRAL AND WESTERN NORTH DAKOTA  *****

CITY           SKY/WX    TMP DP  RH WIND       PRES   REMARKS
JAMESTOWN      SUNNY     74  63  68 SE7       29.93F
6HR MIN TEMP:  73; 6HR MAX TEMP:  77;

BISMARCK       PTSUNNY   78  62  57 CALM      29.93F
6HR MIN TEMP:  74; 6HR MAX TEMP:  79;

MINOT          MOSUNNY   73  62  68 N7        29.93F
6HR MIN TEMP:  68; 6HR MAX TEMP:  74;

MINOT AFB      PTSUNNY   73  70  88 N5        29.93F
6HR MIN TEMP:  67; 6HR MAX TEMP:  76;

GARRISON         N/A     76  62  62 VRB7      29.94F
6HR MIN TEMP:  71; 6HR MAX TEMP:  77;

WILLISTON      CLOUDY    76  57  51 NW5       29.95F HAZE
6HR MIN TEMP:  72; 6HR MAX TEMP:  80;

DICKINSON      MOSUNNY   73  61  65 W5        29.97S
6HR MIN TEMP:  65; 6HR MAX TEMP:  77;

HETTINGER      MOSUNNY   74  62  66 N6        29.99S
6HR MIN TEMP:  67; 6HR MAX TEMP:  77;

$$

 *****  OTHER OBSERVATIONS NORTHEAST NORTH DAKOTA  *****

CITY           SKY/WX    TMP DP  RH WIND       PRES   REMARKS
WALHALLA       FAIR      77  61  57 MISG      29.92F
LANGDON        FAIR      73  63  68 S5        29.96S
CAVALIER       FAIR      77  59  53 SW3       29.92F
GRAFTON        FAIR      79  61  53 S6        29.93S
CANDO          FAIR      73  61  64 SE6       29.94F
FORT TOTTEN      N/A     77  62  58 NW2       29.95S
ROLLA          FAIR      72  63  73 SW5       29.96S
RUGBY          NOT AVBL
 ***** THE ABOVE OBSERVATIONS ARE NON NWS ARE NOT QUALITY
        CONTROLLED AND MAY MIS-REPORT RAIN FOR SNOW...
$$

 *****  OTHER OBSERVATIONS SOUTHEAST NORTH DAKOTA *****

CITY           SKY/WX    TMP DP  RH WIND       PRES   REMARKS
COOPERSTOWN    NOT AVBL
VALLEY CITY    MOCLDY    73  64  73 SE9       29.95F
OAKES            N/A     72  64  78 SE8       29.94F
GWINNER          N/A    N/A N/A N/A MISG        N/A
SHEYENNE NWR     N/A     74  60  60 SE7       29.95S
BUFFALO        NOT AVBL
WYNDMERE       NOT AVBL
 ***** THE ABOVE OBSERVATIONS ARE NON NWS ARE NOT QUALITY
       CONTROLLED AND MAY MIS-REPORT RAIN FOR SNOW...
$$

  *****  WEATHER ACROSS NORTHERN MINNESOTA  *****

CITY           SKY/WX    TMP DP  RH WIND       PRES   REMARKS
FLAG ISLAND    MOSUNNY   72  63  73 CALM      29.92S
WARROAD        MOSUNNY   75  61  60 W3        29.94S
ROSEAU         MOSUNNY   75  61  60 W3        29.94S
HALLOCK        NOT AVBL
THF RVR FALLS  SUNNY     75  61  60 SW9       29.95S
6HR MIN TEMP:  75; 6HR MAX TEMP:  79;

HALSTAD        NOT AVBL
FOSSTON        MOSUNNY   73  61  64 W10       29.97S
BAUDETTE       SUNNY     77  54  44 NE3       29.94S
6HR MIN TEMP:  76; 6HR MAX TEMP:  79;

WASKISH        MOSUNNY   75  55  50 SW3       29.95S
CROOKSTON      SUNNY     77  61  57 SW8       29.95S
$$
  *****  WEATHER ACROSS CENTRAL AND WEST MINNESOTA  *****

CITY           SKY/WX    TMP DP  RH WIND       PRES   REMARKS
BEMIDJI        PTSUNNY   73  60  63 CALM      29.96S
PARK RAPIDS    CLOUDY    75  58  55 SW7       29.97S
6HR MIN TEMP:  72; 6HR MAX TEMP:  78;

WADENA           N/A     73  54  49 SW6       29.99R
DETROIT LAKES  SUNNY     73  55  53 SW8       29.99S
MOORHEAD       SUNNY     73  57  56 S5        29.96F
FERGUS FALLS   SUNNY     72  55  56 S6        29.97S
ELBOW LAKE     FAIR      71  55  58 S8        29.98S
6HR MIN TEMP:  69; 6HR MAX TEMP:  73;

MORRIS MN      SUNNY     72  54  53 S8        29.98S
STAPLES        SUNNY     73  54  49 SW6       29.99R
WHEATON        SUNNY     70  54  56 SE9       29.98F
$$
  *****  WEATHER ELSEWHERE ACROSS MINNESOTA  *****

CITY           SKY/WX    TMP DP  RH WIND       PRES   REMARKS
DULUTH         MOSUNNY   68  54  60 SE8       29.99S
6HR MIN TEMP:  68; 6HR MAX TEMP:  72;

INTRNTL FALLS  SUNNY     75  56  51 CALM      29.95R
6HR MIN TEMP:  73; 6HR MAX TEMP:  78;

ELY            SUNNY     72  52  49 S3        29.98S
CLOQUET        MOSUNNY   70  54  56 SE5       29.99R
BRAINERD       MOSUNNY   74  54  49 S8        29.99R
6HR MIN TEMP:  71; 6HR MAX TEMP:  77;

HIBBING        MOSUNNY   73  56  54 S3        29.97S
6HR MIN TEMP:  70; 6HR MAX TEMP:  76;

ALEXANDRIA     SUNNY     71  56  58 S7        30.01S
6HR MIN TEMP:  69; 6HR MAX TEMP:  73;

SAINT CLOUD    SUNNY     73  51  46 CALM      29.99S
6HR MIN TEMP:  68; 6HR MAX TEMP:  74;

MINNEAPOLIS    MOSUNNY   71  53  52 SE6       29.98F
6HR MIN TEMP:  64; 6HR MAX TEMP:  73;

$$

  *****  WEATHER ACROSS SOUTH DAKOTA  *****

CITY           SKY/WX    TMP DP  RH WIND       PRES   REMARKS
SIOUX FALLS    PTSUNNY   74  62  66 E10       29.95S
6HR MIN TEMP:  69; 6HR MAX TEMP:  75;

BROOKINGS      MOSUNNY  N/A N/A N/A E15       29.96F
WATERTOWN      MOSUNNY   70  56  61 SE12G17   29.96S
6HR MIN TEMP:  67; 6HR MAX TEMP:  72;

HURON          RAIN      73  67  81 E10       29.89F
6HR MIN TEMP:  74; 6HR MAX TEMP:  80; 6HR PCP:  0.02;

SISSETON         N/A     73  57  57 S9        29.95S
ABERDEEN       PTSUNNY   76  65  68 SE5       29.92S
6HR MIN TEMP:  73; 6HR MAX TEMP:  79; 6HR PCP:  0.01;

MITCHELL       MOSUNNY   76  67  73 E13       29.91S
PIERRE         PTSUNNY   80  67  64 E8        29.88F
6HR MIN TEMP:  76; 6HR MAX TEMP:  83;

MOBRIDGE       CLOUDY    79  66  64 E6        29.90F
RAPID CITY     SUNNY     81  65  58 N18       29.97S
6HR MIN TEMP:  80; 6HR MAX TEMP:  84;

$$

  *****  SOME WEATHER IN NEARBY STATES *****

CITY           SKY/WX    TMP DP  RH WIND       PRES   REMARKS
GLASGOW MT     PTSUNNY   82  51  34 W15       29.96F
6HR MIN TEMP:  75; 6HR MAX TEMP:  84;

GREAT FALLS MT SUNNY     80  51  36 NE15G24   30.08R
6HR MIN TEMP:  80; 6HR MAX TEMP:  90;

CHEYENNE WY    CLOUDY    74  54  49 CALM      30.20R
6HR MIN TEMP:  72; 6HR MAX TEMP:  84; 6HR PCP:  0.03;

SCOTTSBLUFF NE PTSUNNY   89  52  28 SE13      29.98F
6HR MIN TEMP:  89; 6HR MAX TEMP:  96;

OMAHA NE       MOSUNNY   80  68  66 NE12      29.87R
6HR MIN TEMP:  80; 6HR MAX TEMP:  84;

DES MOINES IA  CLOUDY    73  60  63 E12       29.91S
6HR MIN TEMP:  73; 6HR MAX TEMP:  76;

DAVENPORT IA   PTSUNNY   68  57  68 NE12      29.93F
6HR MIN TEMP:  68; 6HR MAX TEMP:  74;

CHICAGO IL     CLOUDY    59  50  72 NE12      29.98S
6HR MIN TEMP:  59; 6HR MAX TEMP:  69;

EAU CLAIRE WI  SUNNY     72  51  47 NE5       29.98S
6HR MIN TEMP:  68; 6HR MAX TEMP:  74;

LA CROSSE WI   MOSUNNY   70  52  52 W5        29.98R
6HR MIN TEMP:  68; 6HR MAX TEMP:  72;

$$

  *****  SOME NATIONAL WEATHER *****

CITY           SKY/WX    TMP DP  RH WIND       PRES   REMARKS


USA.gov is the U.S. government's official web portal to all federal, state and local government web resources and services.